Hourly Data Report for May 26, 2022

OTTAWA INTL A
ONTARIO
Current Station Operator: NAVCAN

45°19'00.000" N
75°40'00.000" W
114.90 m
6106001
71628
YOW

Download Data

Hourly Data (May 2022)
Hourly Data Report for May 26, 2022
TIME
LST
Temp Definition
°C
Dew Point Definition
°C
Rel Hum Definition
%
Precip. Amount Definition
mm

Wind Dir Definition
10's deg

Wind Spd Definition
km/h
Visibility Definition
km
Stn Press Definition
kPa
Hmdx Definition


Wind Chill Definition


Weather Definition


00:00 16.4 6.5 52   9 14 24.1 100.77     LegendNANA
01:00 16.3 6.6 52   9 17 24.1 100.69     Rain
02:00 14.5 8.5 67   10 13 24.1 100.64     Rain
03:00 13.2 10.9 86   6 8 16.1 100.62     Rain
04:00 12.7 11.7 93   10 10 9.7 100.60     Rain, Fog
05:00 13.2 12.1 93   9 14 16.1 100.53     Rain
06:00 13.9 12.9 93   10 14 16.1 100.50     Rain
07:00 15.2 13.2 88   13 15 16.1 100.46     Cloudy
08:00 15.9 12.7 81   14 18 16.1 100.37     LegendNANA
09:00 17.9 13.2 74   17 13 24.1 100.28     LegendNANA
10:00 20.2 11.9 58   20 21 24.1 100.22     Cloudy
11:00 20.2 11.4 57   19 25 24.1 100.12     LegendNANA
12:00 20.5 12.6 60   20 21 24.1 100.07     LegendNANA
13:00 21.0 13.3 61   20 21 24.1 99.97     Cloudy
14:00 21.2 13.2 60   20 26 24.1 99.91     LegendNANA
15:00 22.2 13.7 58   20 25 24.1 99.82 25   LegendNANA
16:00 24.8 15.1 54   21 31 24.1 99.75 29   Mostly Cloudy
17:00 24.2 15.1 56   21 23 24.1 99.72 28   LegendNANA
18:00 23.6 14.9 57   21 22 24.1 99.68 28   LegendNANA
19:00 23.5 14.8 58   21 23 24.1 99.65 27   Mostly Cloudy
20:00 22.9 14.9 60   19 22 24.1 99.63 27   LegendNANA
21:00 21.9 15.8 68   20 24 24.1 99.65 26   LegendNANA
22:00 21.2 15.8 71   19 14 24.1 99.62 26   Rain
23:00 21.5 15.1 66   20 27 24.1 99.62 26   LegendNANA

Notes on Data Quality.

Legend

  • E = Estimated
  • M = Missing
  • NA = Not Available*
  • [empty] = Indicates an unobserved value
Date modified: